ONEWEB-0066, 45424

Orbit data source: Space-Track

ONEWEB-0066, 45424 is a payload satellite owned by One Web (UK) in LEO that was launched on Sat, 21 Mar 2020 UTC via a SOYUZ-2-1B launch vehicle from the Tyuratam Missile And Space Complex (TTMTR). Payloads include a variety of satellites, spacecraft, and rockets equipped with specific instruments for various scientific and technological missions. These include communications satellites like Starlink; space stations such as the ISS; scientific satellites like the Hubble; Earth observation satellites from companies like Planet Labs, Umbra, and HawkEye 360; GPS; miniature CubeSats for education and research; and military/defense satellites.

Loading next visibility...
ONEWEB-0066 details
Identifier
45424, 2020-020A
Orbit
LEO
Last TLE update16 hours ago
Origin
Flag of UKOne Web (UK)
ManufacturerOne Web
MissionOperational Commercial Communications
Bus & MotorARROW, Unknown motor
Mass148 kg wet, ~140 kg dry
Launch date (UTC)
2020-03-21 (5 years ago)
Launch vehicle
SOYUZ-2-1B
Launch site
Tyuratam Missile And Space Complex (TTMTR)
Object type
Payload
Rocket body
Debris
Shape & HBRTrap Box + 2 Pan, 5 m
Radar Cross Section2.957 m², Large (>1 m²)

Expand to show TLE details & history

TLE from 16 hours ago
0 ONEWEB-0066
1 45424U 20020A   24355.83739789  .00000480  00000-0  13189-2 0  9992
2 45424  87.8900 129.3378 0001280  86.5198 273.6077 13.11416307231469
Epoch: 2024-12-20T20:05Z
Definitive object data (Epoch: 2024-12-20T20:05:51.177Z)
Latitude0.00003°
Longitude97.97739°
Altitude1,220.513 km
Speed7.244 km/s
True Right ascension08h 37m 21s
True Declination0° 00' 00"
Sunlit
Object was in full shadow at TLE epoch
Visualization TLE readout
Latitude-34.99507°
Longitude-80.68241°
Altitude1,231.527 km
Speed7.238 km/s
Apparent Right ascension21h 39m 21s
Apparent Declination-38° 10' 10"
Sunlit
Object is in daylight
Visualization observer readout
Local Sidereal Time10:51:59
Azimuth88.748° E
Elevation-75.814°
Doppler factor1
Orbital elements
Apogee altitude1,215.775 km
Perigee altitude1,213.831 km
Semi-major axis7,592.94 km
Eccentricity0.000128
Inclination87.89°
RAAN129.3378°
Arg. of periapsis86.5198°
True anomaly273.59306°
Mean anomaly273.6077°
Eccentric anomaly273.60038°
Mean motion3.28041 °/min
BSTAR0.0013189
Orbital period109.74 mins
Loading maneuver chart data...
Loading historical data...
Loading historical data...
Loading historical data...
Loading historical data...
Loading historical data...
Loading historical data...
Loading historical data...

ONEWEB-0066 Visibility forecast

Observer location: undefined°, undefined

Span
Click to sort rows by Start time (UTC) header in descending order
Start Az.
Max El. time (UTC)
Max El. Az.
Max El.
End time (UTC)
End Az.
13 mins2024-12-21 20:30:17.732Z14.985° NNE2024-12-21 20:36:17.732Z75.478° E33.512°2024-12-21 20:43:17.732Z150.921° SSE
11 mins2024-12-21 22:21:17.732Z335.76° NNW2024-12-21 22:26:17.732Z281.381° WNW29.774°2024-12-21 22:32:17.732Z220.616° SW
12 mins2024-12-22 08:50:17.732Z147.243° SSE2024-12-22 08:55:17.732Z87.958° E35.951°2024-12-22 09:02:17.732Z12.888° NNE
11 mins2024-12-22 10:40:17.732Z225.671° WSW2024-12-22 10:45:17.732Z276.498° WNW27.331°2024-12-22 10:51:17.732Z337.906° N
|